Mc Donough, Georgia, United States
Lat: 33.45N, Lon: 84.15W
Wx Zone: GAZ057
Local Info
Past Weather Observations for Today

NOTE: This archive is for the closest National Weather Service station to Mc Donough. Information may differ from the station used for current weather conditions.

Click here for Long-term Archive

Time Weather Temperature Dewpoint Humidity Pressure Winds Precip Visibility
12:52
Overcast
Drizzle
46°F / 8°C 45°F / 7°C 93% 29.95 in
(1014 mb)
E 11.5 mph
(E 19 kph)
0.00 in
(0.00 mm)
1/2SM
11:52
Overcast
Drizzle
46°F / 8°C 45°F / 7°C 93% 30.01 in
(1016 mb)
E 10.4 mph
(E 17 kph)
0.00 in
(0.00 mm)
1/2SM
10:52
Overcast
Drizzle
45°F / 7°C 45°F / 7°C 100% 30.04 in
(1017 mb)
E 10.4 mph
(E 17 kph)
0.00 in
(0.00 mm)
1/2SM
09:52
Overcast
Drizzle
45°F / 7°C 43°F / 6°C 93% 30.04 in
(1017 mb)
E 12.7 mph
(E 20 kph)
0.00 in
(0.00 mm)
1/2SM
08:52
Overcast
Fog And Mist
45°F / 7°C 43°F / 6°C 93% 30.04 in
(1017 mb)
E 10.4 mph
(E 17 kph)
- 1/2SM
07:52
Overcast
Fog And Mist
45°F / 7°C 43°F / 6°C 93% 30.04 in
(1017 mb)
E 11.5 mph
(E 19 kph)
0.00 in
(0.00 mm)
1/2SM
06:52
Overcast
Drizzle
45°F / 7°C 43°F / 6°C 93% 30.04 in
(1017 mb)
E 9.2 mph
(E 15 kph)
0.00 in
(0.00 mm)
1/2SM
06:41
Overcast
Drizzle
45°F / 7°C 43°F / 6°C 93% 30.04 in
(1017 mb)
E 11.5 mph
(E 19 kph)
0.00 in
(0.00 mm)
1/2SM
05:52
Overcast
Drizzle
46°F / 8°C 43°F / 6°C 87% 30.04 in
(1017 mb)
E 15 mph
(E 24 kph)
0.00 in
(0.00 mm)
1SM
04:52
Overcast
Drizzle
46°F / 8°C 45°F / 7°C 93% 30.04 in
(1017 mb)
E 10.4 mph
(E 17 kph)
0.00 in
(0.00 mm)
1SM
03:57
Overcast
Drizzle
46°F / 8°C 45°F / 7°C 93% 30.04 in
(1017 mb)
E 13.8 mph
(E 22 kph)
0.00 in
(0.00 mm)
3SM
03:52
Overcast
Drizzle
46°F / 8°C 45°F / 7°C 93% 30.04 in
(1017 mb)
E 10.4 mph
(E 17 kph)
0.00 in
(0.00 mm)
2 1/2SM
02:52
Overcast
Drizzle
46°F / 8°C 45°F / 7°C 93% 30.06 in
(1018 mb)
E 9.2 mph
(E 15 kph)
0.00 in
(0.00 mm)
2 1/2SM
02:49
Overcast
Drizzle
46°F / 8°C 45°F / 7°C 93% 30.06 in
(1018 mb)
E 9.2 mph
(E 15 kph)
0.00 in
(0.00 mm)
1 1/2SM
01:52
Overcast
Drizzle
46°F / 8°C 45°F / 7°C 93% 30.06 in
(1018 mb)
E 12.7 mph
(E 20 kph)
0.00 in
(0.00 mm)
2 1/2SM
01:48
Overcast
Drizzle
46°F / 8°C 45°F / 7°C 93% 30.06 in
(1018 mb)
E 13.8 mph
(E 22 kph)
0.00 in
(0.00 mm)
2 1/2SM
01:29
Overcast
Drizzle
46°F / 8°C 45°F / 7°C 93% 30.06 in
(1018 mb)
E 10.4 mph
(E 17 kph)
0.00 in
(0.00 mm)
1 1/2SM
01:10
Overcast
Drizzle
46°F / 8°C 45°F / 7°C 93% 30.06 in
(1018 mb)
E 10.4 mph
(E 17 kph)
0.00 in
(0.00 mm)
2SM
00:52
Overcast
Drizzle
46°F / 8°C 45°F / 7°C 93% 30.06 in
(1018 mb)
E 11.5 mph
(E 19 kph)
0.00 in
(0.00 mm)
3SM
00:05
Overcast
Drizzle
48°F / 9°C 45°F / 7°C 87% 30.06 in
(1018 mb)
E 13.8 mph
(E 22 kph)
0.00 in
(0.00 mm)
7SM
Time Weather Temperature Dewpoint Humidity Pressure Winds Precip Visibility


Weather for websites

WeatherForYou.com, LLC is not responsible for any damages or problems caused by this service. Current weather conditions are obtained from the closest station including government and personal stations which may have varying degrees of accuracy. Weather forecasts are derived from the NOAA NDFD. Like all things, this site belongs to Jesus Christ... He just trusts me to maintain it. If you have any questions or comments email webmaster@weatherforyou.com

Copyright © 2014, WeatherForYou.com LLC. All rights reserved.